1483653600.9,33941,5.75,72026.0,-27.75,-44.67,-45.47,0,*68
1483653602.16,33942,5.75,72030.0,-27.73,-44.67,-45.47,0,*6D
1483653603.41,33943,5.75,72040.5,-27.73,-44.53,-45.47,0,*6B
1483653604.63,33944,5.75,72070.0,-27.73,-44.53,-45.61,0,*68
1483653605.88,33945,5.75,72064.0,-27.73,-44.53,-45.47,0,*6D
1483653607.13,33946,5.75,72028.5,-27.73,-44.21,-45.41,0,*6D
1483653608.37,33947,5.75,72058.0,-27.73,-44.41,-45.27,0,*6A
1483653609.64,33948,5.75,72048.0,-27.75,-44.61,-45.27,0,*61
1483653610.9,33949,5.75,72040.0,-27.71,-44.21,-45.21,0,*66
1483653612.12,33950,5.75,72038.3,-27.71,-44.53,-45.41,0,*6D
1483653613.39,33951,5.75,72020.3,-27.69,-44.67,-45.61,0,*60
1483653614.61,33952,5.75,72042.5,-27.71,-44.61,-45.67,0,*6A
1483653615.84,33953,5.75,72044.5,-27.73,-44.79,-45.87,0,*6E
1483653617.07,33954,5.75,72044.8,-27.71,-44.87,-45.95,0,*69
1483653618.33,33955,5.75,72054.8,-27.71,-44.99,-46.07,0,*6F
1483653619.61,33956,5.75,72038.5,-27.71,-45.07,-46.07,0,*6A
1483653620.86,33957,5.75,72028.8,-27.69,-44.99,-46.01,0,*62
1483653622.11,33958,5.75,72038.5,-27.71,-45.21,-46.27,0,*62
1483653623.37,33959,5.75,72040.8,-27.69,-45.33,-46.41,0,*69
1483653624.63,33960,5.75,72034.3,-27.71,-45.21,-46.15,0,*68
1483653625.89,33961,5.75,72030.5,-27.69,-45.33,-46.27,0,*62
1483653627.18,33962,5.75,72052.5,-27.71,-45.27,-46.27,0,*6D
1483653628.43,33963,5.75,72042.8,-27.71,-45.47,-46.35,0,*69
1483653629.67,33964,5.75,72036.0,-27.71,-45.47,-46.55,0,*68
1483653630.92,33965,5.75,72040.8,-27.69,-45.21,-46.21,0,*63
1483653632.17,33966,5.75,72024.3,-27.71,-45.21,-46.07,0,*6D
1483653633.45,33967,5.75,72018.3,-27.69,-44.93,-45.87,0,*66
1483653634.7,33968,5.75,72034.0,-27.69,-45.21,-46.21,0,*6E
1483653635.98,33969,5.75,72042.5,-27.71,-45.27,-46.15,0,*67
1483653637.23,33970,5.75,72006.8,-27.69,-45.21,-46.21,0,*67
1483653638.5,33971,5.75,72032.5,-27.69,-44.93,-45.87,0,*61
1483653639.76,33972,5.75,72036.8,-27.69,-44.87,-45.87,0,*67
1483653641.0,33973,5.75,72014.5,-27.69,-44.99,-45.87,0,*69
1483653642.25,33974,5.75,72036.0,-27.69,-44.79,-45.67,0,*6E
1483653643.5,33975,5.75,72036.5,-27.69,-44.99,-45.87,0,*6F
1483653644.77,33976,5.75,72018.0,-27.69,-45.21,-46.27,0,*67
1483653646.02,33977,5.75,72016.5,-27.69,-44.99,-45.87,0,*6D
1483653647.27,33978,5.75,72068.3,-27.69,-44.79,-45.61,0,*64
1483653648.52,33979,5.75,72084.3,-27.65,-44.61,-45.53,0,*61
1483653649.79,33980,5.75,72024.8,-27.65,-44.33,-45.21,0,*65
1483653651.04,33981,5.75,71998.5,-27.65,-44.61,-45.53,0,*66
1483653652.29,33982,5.75,71996.3,-27.63,-44.73,-45.61,0,*61
1483653653.54,33983,5.75,72008.5,-27.65,-44.53,-45.41,0,*66
1483653654.76,33984,5.75,72052.0,-27.63,-44.53,-45.41,0,*67
1483653656.01,33985,5.75,72020.8,-27.63,-44.73,-45.61,0,*66
1483653657.26,33986,5.75,72030.3,-27.63,-44.73,-45.61,0,*65
1483653658.5,33987,5.75,72032.0,-27.63,-44.47,-45.41,0,*61
1483653659.73,33988,5.75,72054.8,-27.59,-44.99,-46.01,0,*63
1483653660.98,33989,5.75,72036.5,-27.59,-44.53,-45.47,0,*65
1483653662.21,33990,5.75,72040.0,-27.59,-45.13,-46.01,0,*69
1483653663.46,33991,5.75,72050.3,-27.59,-44.93,-45.95,0,*6F
1483653664.75,33992,5.75,72036.3,-27.59,-45.27,-46.15,0,*69
1483653665.99,33993,5.75,72036.3,-27.59,-45.47,-46.35,0,*6C
1483653667.27,33994,5.81,72052.0,-27.57,-45.41,-46.15,0,*61
1483653668.52,33995,5.75,72044.5,-27.59,-45.53,-46.41,0,*6C
1483653669.76,33996,5.75,72046.0,-27.59,-45.47,-46.35,0,*69
1483653671.01,33997,5.75,72048.3,-27.59,-45.67,-46.41,0,*69
1483653672.27,33998,5.75,72048.5,-27.59,-45.73,-46.61,0,*61
1483653673.49,33999,5.75,72048.8,-27.59,-45.95,-46.75,0,*6D
1483653674.73,34000,5.75,72044.8,-27.57,-45.41,-46.55,0,*66
1483653675.95,34001,5.75,72044.8,-27.59,-45.67,-46.55,0,*6D
1483653677.22,34002,5.75,72044.5,-27.59,-45.47,-46.41,0,*69
1483653678.47,34003,5.75,72048.0,-27.63,-45.61,-46.49,0,*6D
1483653679.72,34004,5.75,72050.3,-27.63,-45.61,-46.49,0,*6A
1483653680.96,34005,5.75,72046.5,-27.63,-45.41,-46.41,0,*61
1483653682.21,34006,5.75,72044.8,-27.63,-45.53,-46.49,0,*69
1483653683.46,34007,5.75,72044.3,-27.63,-45.61,-46.49,0,*69
1483653684.74,34008,5.75,72046.8,-27.65,-45.73,-46.69,0,*61
1483653686.0,34009,5.75,72040.0,-27.63,-45.73,-46.61,0,*6E
1483653687.26,34010,5.75,72040.5,-27.63,-45.81,-46.61,0,*6B
1483653688.52,34011,5.75,72044.8,-27.63,-45.73,-46.61,0,*67
1483653689.76,34012,5.75,72042.5,-27.63,-45.61,-46.49,0,*6D
1483653691.05,34013,5.75,72042.5,-27.65,-45.81,-46.61,0,*6E
1483653692.31,34014,5.75,72054.8,-27.63,-45.73,-46.61,0,*62
1483653693.55,34015,5.75,72050.5,-27.63,-45.61,-46.49,0,*6A
1483653694.8,34016,5.75,72024.0,-27.63,-44.79,-45.73,0,*6B
1483653696.06,34017,5.75,72048.0,-27.63,-44.79,-45.73,0,*6A
1483653697.33,34018,5.75,72036.3,-27.63,-44.93,-45.73,0,*61
1483653698.58,34019,5.75,72036.0,-27.63,-45.13,-46.07,0,*69
1483653699.81,34020,5.75,72040.8,-27.63,-45.41,-46.41,0,*66
1483653701.06,34021,5.75,72028.3,-27.63,-45.53,-46.27,0,*64
1483653702.28,34022,5.75,72044.0,-27.63,-45.33,-46.21,0,*67
1483653703.53,34023,5.75,72042.3,-27.63,-44.93,-46.01,0,*6F
1483653704.75,34024,5.75,72044.5,-27.63,-45.13,-46.21,0,*63
1483653706.0,34025,5.75,72040.3,-27.59,-45.53,-46.41,0,*69
1483653707.24,34026,5.75,72044.0,-27.59,-45.73,-46.55,0,*6D
1483653708.46,34027,5.75,72034.3,-27.59,-45.33,-46.35,0,*6E
1483653709.68,34028,5.75,72040.8,-27.59,-45.33,-46.21,0,*64
1483653710.93,34029,5.75,72048.3,-27.59,-45.53,-46.41,0,*65
1483653712.17,34030,5.75,72056.0,-27.59,-45.33,-46.41,0,*6B
1483653713.42,34031,5.75,72052.0,-27.63,-45.53,-46.27,0,*65
1483653714.67,34032,5.75,72058.5,-27.63,-45.53,-46.49,0,*6E
1483653715.91,34033,5.75,72044.5,-27.63,-45.41,-46.49,0,*6C
1483653717.15,34034,5.75,72048.0,-27.63,-45.41,-46.41,0,*63
1483653718.4,34035,5.75,72054.5,-27.63,-45.61,-46.49,0,*68
1483653719.67,34036,5.75,72040.8,-27.63,-45.73,-46.49,0,*68
1483653720.92,34037,5.75,72038.8,-27.59,-45.53,-46.41,0,*6A
1483653722.17,34038,5.75,72018.0,-27.63,-45.81,-46.61,0,*61
1483653723.43,34039,5.75,72000.8,-27.63,-45.73,-46.61,0,*6D
1483653724.68,34040,5.75,71994.8,-27.63,-44.99,-46.07,0,*66
1483653725.9,34041,5.75,72016.5,-27.63,-45.13,-46.21,0,*60
1483653727.12,34042,5.75,72020.0,-27.59,-45.33,-46.35,0,*6D
1483653728.36,34043,5.75,72030.8,-27.63,-45.33,-46.27,0,*66
1483653729.61,34044,5.75,72022.5,-27.63,-45.53,-46.49,0,*6F
1483653730.86,34045,5.75,72026.0,-27.59,-45.13,-46.15,0,*6A
1483653732.12,34046,5.75,72030.8,-27.59,-45.13,-46.15,0,*69
1483653733.41,34047,5.75,72032.8,-27.57,-45.47,-46.27,0,*66
1483653734.67,34048,5.75,72042.5,-27.59,-45.27,-46.35,0,*62
1483653735.93,34049,5.75,72044.8,-27.59,-45.07,-46.01,0,*66
1483653737.21,34050,5.75,72030.5,-27.57,-44.99,-46.07,0,*60
1483653738.43,34051,5.75,72038.5,-27.59,-44.99,-45.87,0,*64
1483653739.71,34052,5.75,72024.5,-27.57,-45.27,-46.35,0,*67
1483653740.94,34053,5.75,72052.3,-27.59,-45.53,-46.35,0,*6B
1483653742.23,34054,5.75,72032.8,-27.59,-45.27,-46.15,0,*6D
1483653743.5,34055,5.75,72044.8,-27.57,-45.47,-46.35,0,*66
1483653744.77,34056,5.75,72036.3,-27.57,-45.47,-46.35,0,*65
1483653746.01,34057,5.75,71992.8,-27.57,-45.61,-46.35,0,*60
1483653747.29,34058,5.75,72024.0,-27.57,-45.61,-46.49,0,*64
1483653748.57,34059,5.75,72036.8,-27.57,-45.27,-46.35,0,*6C
1483653749.85,34060,5.75,72000.5,-27.57,-45.21,-46.07,0,*61
1483653751.13,34061,5.75,72042.0,-27.59,-45.07,-46.15,0,*69
1483653752.43,34062,5.75,72038.0,-27.57,-45.07,-46.07,0,*67
1483653753.74,34063,5.75,72026.5,-27.57,-45.07,-46.15,0,*65
1483653755.01,34064,5.75,72032.3,-27.57,-45.13,-46.15,0,*67
1483653756.29,34065,5.75,72034.5,-27.57,-45.27,-46.35,0,*63
1483653757.56,34066,5.75,72040.3,-27.57,-45.47,-46.35,0,*66
1483653758.83,34067,5.75,72032.8,-27.57,-45.67,-46.49,0,*6E
1483653760.1,34068,5.75,72058.3,-27.57,-45.41,-46.27,0,*6D
1483653761.41,34069,5.75,72030.0,-27.57,-45.27,-46.15,0,*6D
1483653762.71,34070,5.75,72026.3,-27.57,-45.47,-46.27,0,*62
1483653763.95,34071,5.75,72028.5,-27.59,-45.67,-46.41,0,*6F
1483653765.23,34072,5.75,72018.8,-27.57,-45.61,-46.49,0,*6C
1483653766.53,34073,5.75,72038.5,-27.57,-45.47,-46.49,0,*69
1483653767.77,34074,5.75,72044.3,-27.57,-45.67,-46.55,0,*61
1483653769.01,34075,5.75,72046.5,-27.57,-45.67,-46.55,0,*60
1483653770.28,34076,5.75,72032.3,-27.57,-45.73,-46.55,0,*66
1483653771.52,34077,5.75,72032.8,-27.59,-45.73,-46.75,0,*6B
1483653772.79,34078,5.75,72038.0,-27.57,-45.21,-46.27,0,*6A
1483653774.04,34079,5.75,72036.5,-27.59,-45.41,-46.27,0,*63
1483653775.32,34080,5.75,72036.0,-27.57,-45.27,-46.35,0,*68
1483653776.6,34081,5.75,72038.5,-27.57,-45.27,-46.35,0,*69
1483653777.87,34082,5.75,72052.5,-27.57,-45.47,-46.35,0,*6C
1483653779.12,34083,5.75,72028.8,-27.57,-45.41,-46.35,0,*6B
1483653780.4,34084,5.75,72040.0,-27.57,-45.27,-46.35,0,*6C
1483653781.67,34085,5.75,72038.0,-27.57,-45.61,-46.49,0,*64
1483653782.96,34086,5.75,72046.8,-27.57,-45.73,-46.69,0,*66
1483653784.18,34087,5.75,72034.8,-27.59,-45.67,-46.55,0,*63
1483653785.45,34088,5.75,72032.5,-27.57,-45.47,-46.55,0,*60
1483653786.72,34089,5.75,72038.8,-27.57,-45.61,-46.49,0,*68
1483653787.94,34090,5.75,72044.3,-27.59,-45.67,-46.55,0,*65
1483653789.16,34091,5.75,72064.5,-27.59,-45.41,-46.35,0,*66
1483653790.4,34092,5.75,72050.0,-27.59,-45.67,-46.61,0,*60
1483653791.63,34093,5.75,72046.3,-27.59,-45.53,-46.55,0,*61
1483653792.91,34094,5.75,72044.0,-27.57,-45.21,-46.27,0,*68
1483653794.18,34095,5.75,72042.8,-27.59,-45.47,-46.41,0,*67
1483653795.42,34096,5.75,72058.0,-27.57,-45.41,-46.35,0,*6F
1483653796.69,34097,5.75,72052.0,-27.57,-45.41,-46.15,0,*6C
1483653797.93,34098,5.75,72052.5,-27.57,-45.41,-46.35,0,*61
1483653799.17,34099,5.75,72054.0,-27.59,-45.73,-46.75,0,*6B
1483653800.44,34100,5.75,72062.5,-27.57,-45.87,-46.69,0,*62
1483653801.68,34101,5.75,72058.3,-27.57,-45.67,-46.55,0,*62
1483653802.95,34102,5.75,72050.8,-27.57,-45.47,-46.35,0,*65
1483653804.2,34103,5.75,72058.0,-27.57,-45.61,-46.35,0,*60
1483653805.42,34104,5.75,72052.8,-27.59,-45.95,-46.55,0,*64
1483653806.66,34105,5.75,72050.3,-27.59,-45.73,-46.55,0,*6D
1483653807.92,34106,5.75,72056.8,-27.57,-45.73,-46.75,0,*62
1483653809.16,34107,5.75,72060.5,-27.59,-45.73,-46.55,0,*6F
1483653810.43,34108,5.75,72062.3,-27.57,-45.73,-46.75,0,*6C
1483653811.67,34109,5.75,72058.3,-27.57,-45.95,-46.97,0,*69
1483653812.89,34110,5.75,72058.0,-27.59,-45.95,-46.83,0,*6A
1483653814.15,34111,5.75,72058.3,-27.59,-45.73,-46.61,0,*6F
1483653815.42,34112,5.75,72052.0,-27.59,-45.81,-46.61,0,*61
1483653816.67,34113,5.75,72048.0,-27.57,-45.87,-47.03,0,*6D
1483653817.9,34114,5.75,72054.0,-27.59,-45.95,-46.75,0,*67
1483653819.12,34115,5.75,72048.8,-27.59,-46.01,-46.83,0,*61
1483653820.39,34116,5.75,72054.8,-27.59,-45.81,-46.61,0,*65
1483653821.61,34117,5.75,72052.5,-27.59,-45.95,-46.75,0,*64
1483653822.83,34118,5.75,72050.3,-27.59,-46.01,-46.83,0,*6C
1483653824.07,34119,5.75,72050.0,-27.63,-45.87,-46.69,0,*6D
1483653825.34,34120,5.75,72044.8,-27.57,-45.73,-46.55,0,*64
1483653826.59,34121,5.75,72058.3,-27.59,-46.15,-46.97,0,*66
1483653827.81,34122,5.75,72058.5,-27.59,-46.01,-46.97,0,*60
1483653829.08,34123,5.75,72038.0,-27.59,-46.15,-47.03,0,*68
1483653830.3,34124,5.75,72046.3,-27.59,-45.95,-46.97,0,*68
1483653831.52,34125,5.75,72048.0,-27.63,-46.01,-46.83,0,*6B
1483653832.76,34126,5.75,72054.5,-27.63,-46.01,-47.03,0,*61
1483653833.98,34127,5.75,72048.5,-27.59,-45.67,-46.55,0,*68
1483653835.23,34128,5.75,72052.5,-27.57,-45.61,-46.55,0,*6F
1483653836.49,34129,5.75,72048.3,-27.59,-45.73,-46.61,0,*64
1483653837.75,34130,5.75,72054.0,-27.63,-45.73,-46.61,0,*65
1483653838.99,34131,5.75,72048.3,-27.63,-45.61,-46.61,0,*67
1483653840.22,34132,5.75,72052.0,-27.63,-45.87,-46.89,0,*6A
1483653841.44,34133,5.75,72046.0,-27.59,-45.67,-46.55,0,*6D
1483653842.69,34134,5.75,72046.5,-27.59,-45.47,-46.55,0,*68
1483653843.95,34135,5.75,72048.0,-27.59,-45.73,-46.61,0,*69
1483653845.17,34136,5.75,72050.0,-27.59,-45.67,-46.55,0,*68
1483653846.43,34137,5.75,72048.0,-27.59,-45.81,-46.61,0,*66
1483653847.7,34138,5.75,72048.0,-27.59,-45.73,-46.61,0,*64
1483653848.92,34139,5.75,72042.0,-27.59,-45.67,-46.55,0,*67
1483653850.16,34140,5.75,72040.3,-27.59,-45.81,-46.55,0,*61
1483653851.4,34141,5.75,72046.8,-27.59,-45.81,-46.83,0,*6B
1483653852.62,34142,5.75,72040.8,-27.59,-45.67,-46.55,0,*6B
1483653853.84,34143,5.75,72038.8,-27.59,-45.67,-46.55,0,*6A
1483653855.06,34144,5.75,72046.3,-27.59,-45.67,-46.55,0,*6D
1483653856.31,34145,5.75,72046.8,-27.57,-45.61,-46.55,0,*64
1483653857.53,34146,5.75,72032.5,-27.59,-45.67,-46.55,0,*6F
1483653858.77,34147,5.75,72040.3,-27.59,-45.95,-46.61,0,*64
1483653860.01,34148,5.75,72040.5,-27.59,-45.73,-46.55,0,*64
1483653861.31,34149,5.75,72054.3,-27.57,-45.47,-46.49,0,*61
1483653862.57,34150,5.75,72052.3,-27.59,-45.81,-46.61,0,*67
1483653863.81,34151,5.75,72048.0,-27.59,-45.73,-46.55,0,*6C
1483653865.03,34152,5.75,72040.3,-27.59,-45.67,-46.55,0,*6A
1483653866.29,34153,5.75,72048.5,-27.59,-45.81,-46.61,0,*64
1483653867.54,34154,5.75,72050.5,-27.59,-45.53,-46.41,0,*6E
1483653868.81,34155,5.75,72050.3,-27.59,-45.47,-46.41,0,*6A
1483653870.06,34156,5.75,72048.5,-27.57,-45.67,-46.75,0,*62
1483653871.3,34157,5.75,72050.0,-27.59,-45.81,-46.83,0,*6C
1483653872.54,34158,5.75,72054.3,-27.59,-45.73,-46.55,0,*65
1483653873.76,34159,5.75,72062.3,-27.59,-45.67,-46.55,0,*61
1483653875.01,34160,5.75,72058.5,-27.59,-45.67,-46.61,0,*6C
1483653876.23,34161,5.75,72052.8,-27.59,-45.53,-46.55,0,*6D
1483653877.54,34162,5.75,72052.5,-27.57,-45.27,-46.27,0,*66
1483653878.8,34163,5.75,72058.5,-27.59,-45.73,-46.61,0,*6A
1483653880.04,34164,5.75,72058.3,-27.59,-45.95,-46.61,0,*65
1483653881.3,34165,5.75,72066.3,-27.59,-45.81,-46.61,0,*61
1483653882.57,34166,5.75,72058.3,-27.57,-45.61,-46.49,0,*68
1483653883.8,34167,5.75,72062.0,-27.59,-45.53,-46.35,0,*6D
1483653885.05,34168,5.75,72070.3,-27.59,-45.33,-46.15,0,*66
1483653886.3,34169,5.75,72066.3,-27.59,-45.13,-46.15,0,*65
1483653887.56,34170,5.75,72060.8,-27.59,-44.87,-45.73,0,*62
1483653888.86,34171,5.75,72070.8,-27.57,-45.07,-46.07,0,*64
1483653890.13,34172,5.75,72064.8,-27.57,-45.07,-46.35,0,*66
1483653891.37,34173,5.75,72070.0,-27.59,-45.33,-46.41,0,*6D
1483653892.61,34174,5.75,72050.8,-27.59,-45.33,-46.41,0,*6A
1483653893.83,34175,5.75,72046.3,-27.59,-45.33,-46.55,0,*6E
1483653895.09,34176,5.75,72052.0,-27.59,-45.73,-46.61,0,*6E
1483653896.33,34177,5.75,72056.0,-27.59,-45.67,-46.61,0,*6A
1483653897.58,34178,5.75,72056.0,-27.57,-45.61,-46.55,0,*6A
1483653898.85,34179,5.69,72052.0,-27.59,-45.47,-46.41,0,*64
1483653900.1,34180,5.75,72054.3,-27.59,-45.53,-46.41,0,*67
1483653901.32,34181,5.75,72062.0,-27.59,-45.67,-46.55,0,*64
1483653902.54,34182,5.75,72062.0,-27.59,-45.61,-46.55,0,*61
1483653903.78,34183,5.75,72060.5,-27.59,-45.73,-46.55,0,*63
1483653905.02,34184,5.75,72066.0,-27.59,-45.67,-46.61,0,*66
1483653906.24,34185,5.75,72052.0,-27.59,-45.67,-46.55,0,*60
1483653907.49,34186,5.75,72042.0,-27.59,-45.81,-46.83,0,*60
1483653908.73,34187,5.75,72034.5,-27.59,-45.81,-46.75,0,*68
1483653909.99,34188,5.75,72050.0,-27.63,-45.73,-46.61,0,*66
1483653911.23,34189,5.75,72060.5,-27.57,-45.41,-46.35,0,*60
1483653912.47,34190,5.75,72044.8,-27.59,-45.67,-46.61,0,*63
1483653913.72,34191,5.75,72028.8,-27.59,-45.53,-46.61,0,*65
1483653914.94,34192,5.75,72044.3,-27.59,-45.67,-46.55,0,*66
1483653916.16,34193,5.75,72036.0,-27.59,-45.67,-46.55,0,*67
1483653917.4,34194,5.75,72030.0,-27.59,-45.53,-46.61,0,*60
1483653918.67,34195,5.75,72054.5,-27.57,-45.67,-46.69,0,*60
1483653919.92,34196,5.75,72038.5,-27.59,-45.81,-46.83,0,*61
1483653921.2,34197,5.75,72050.5,-27.57,-45.73,-46.69,0,*67
1483653922.42,34198,5.75,72052.5,-27.59,-45.67,-46.55,0,*6C
1483653923.67,34199,5.75,72042.0,-27.63,-45.53,-46.41,0,*66
1483653924.92,34200,5.75,72048.8,-27.59,-45.53,-46.41,0,*6C
1483653926.2,34201,5.75,72056.3,-27.57,-45.21,-46.07,0,*64
1483653927.44,34202,5.75,72040.0,-27.57,-45.41,-46.35,0,*60
1483653928.72,34203,5.75,72042.0,-27.57,-45.21,-46.27,0,*64
1483653929.96,34204,5.75,72030.0,-27.57,-45.41,-46.35,0,*66
1483653931.2,34205,5.75,72028.5,-27.59,-45.73,-46.55,0,*6E
1483653932.43,34206,5.75,72028.3,-27.59,-45.53,-46.55,0,*6F
1483653933.7,34207,5.75,72018.0,-27.57,-45.47,-46.35,0,*63
1483653935.01,34208,5.75,72038.0,-27.57,-45.27,-46.27,0,*69
1483653936.25,34209,5.75,72028.3,-27.57,-45.41,-46.35,0,*6B
1483653937.52,34210,5.75,72032.8,-27.57,-45.47,-46.35,0,*65
1483653938.77,34211,5.75,72042.0,-27.57,-45.61,-46.55,0,*66
1483653939.99,34212,5.75,72032.0,-27.59,-45.67,-46.55,0,*6D
1483653941.23,34213,5.75,72042.5,-27.57,-45.41,-46.35,0,*60
1483653942.51,34214,5.75,72058.0,-27.57,-45.21,-46.07,0,*60
1483653943.78,34215,5.75,72046.0,-27.57,-45.47,-46.35,0,*60
1483653945.05,34216,5.75,72032.3,-27.57,-45.47,-46.35,0,*63
1483653946.36,34217,5.75,72038.0,-27.57,-45.27,-46.15,0,*66
1483653947.63,34218,5.75,72032.0,-27.57,-45.61,-46.49,0,*62
1483653948.93,34219,5.75,72042.3,-27.57,-45.47,-46.49,0,*67
1483653950.18,34220,5.69,72026.5,-27.55,-45.41,-46.27,0,*61
1483653951.46,34221,5.75,72032.0,-27.55,-45.27,-46.27,0,*60
1483653952.68,34222,5.75,72024.3,-27.55,-45.41,-46.35,0,*60
1483653953.9,34223,5.75,72020.5,-27.55,-45.61,-46.55,0,*65
1483653955.18,34224,5.75,72026.0,-27.55,-45.07,-46.15,0,*66
1483653956.46,34225,5.75,72034.0,-27.55,-45.07,-46.15,0,*67
1483653957.74,34226,5.75,72010.0,-27.55,-45.27,-46.27,0,*67
1483653958.99,34227,5.75,72030.0,-27.55,-45.47,-46.35,0,*63
1483653960.24,34228,5.75,72028.5,-27.55,-45.41,-46.49,0,*61
1483653961.49,34229,5.75,72040.5,-27.55,-45.61,-46.49,0,*62
1483653962.71,34230,5.75,72048.5,-27.55,-45.67,-46.55,0,*61
1483653963.96,34231,5.75,72050.5,-27.55,-45.61,-46.49,0,*6B
1483653965.18,34232,5.75,72058.5,-27.55,-45.67,-46.55,0,*63
1483653966.44,34233,5.75,72068.3,-27.55,-45.73,-46.69,0,*68
1483653967.7,34234,5.69,72056.0,-27.55,-44.87,-46.07,0,*6D
1483653968.92,34235,5.69,72054.8,-27.55,-45.41,-46.35,0,*66
1483653970.17,34236,5.75,72052.3,-27.55,-45.41,-46.49,0,*6E
1483653971.39,34237,5.75,72042.5,-27.55,-45.67,-46.55,0,*66
1483653972.66,34238,5.75,72052.0,-27.55,-45.47,-46.49,0,*66
1483653973.9,34239,5.75,72058.8,-27.55,-45.67,-46.69,0,*67
1483653975.15,34240,5.75,72052.3,-27.55,-45.87,-46.89,0,*69
1483653976.38,34241,5.75,72064.3,-27.55,-45.73,-46.75,0,*60
1483653977.66,34242,5.75,72048.8,-27.55,-45.47,-46.49,0,*6B
1483653978.88,34243,5.75,72044.8,-27.55,-45.87,-46.75,0,*69
1483653980.12,34244,5.75,72066.5,-27.55,-45.73,-46.55,0,*67
1483653981.36,34245,5.75,72050.8,-27.55,-45.87,-46.69,0,*62
1483653982.6,34246,5.75,72044.8,-27.55,-45.87,-46.69,0,*61
1483653983.84,34247,5.69,72046.8,-27.55,-45.73,-46.55,0,*64
1483653985.08,34248,5.75,72046.5,-27.55,-45.87,-46.69,0,*6F
1483653986.32,34249,5.75,72056.0,-27.55,-45.87,-46.89,0,*60
1483653987.56,34250,5.69,72036.8,-27.55,-45.87,-46.89,0,*68
1483653988.81,34251,5.75,72050.3,-27.55,-45.95,-46.89,0,*6A
1483653990.05,34252,5.75,72034.5,-27.55,-45.95,-46.89,0,*69
1483653991.3,34253,5.75,72066.3,-27.55,-46.07,-46.97,0,*6F
1483653992.52,34254,5.75,72048.5,-27.55,-45.95,-46.75,0,*6C
1483653993.79,34255,5.75,72058.8,-27.55,-46.27,-47.23,0,*65
1483653995.01,34256,5.75,72052.5,-27.55,-45.95,-46.97,0,*62
1483653996.25,34257,5.75,72060.0,-27.55,-46.07,-47.17,0,*62
1483653997.5,34258,5.75,72056.5,-27.55,-45.67,-46.69,0,*60
1483653998.76,34259,5.75,72056.0,-27.57,-45.87,-46.69,0,*6D
1483654000.0,34260,5.69,72046.0,-27.57,-45.87,-46.75,0,*6A
1483654001.24,34261,5.75,72054.5,-27.57,-45.87,-46.97,0,*67
1483654002.53,34262,5.75,72050.8,-27.57,-45.73,-46.69,0,*6E
1483654003.77,34263,5.69,72058.5,-27.57,-45.67,-46.55,0,*65
1483654005.04,34264,5.75,72074.5,-27.55,-45.47,-46.49,0,*6F
1483654006.31,34265,5.75,72050.8,-27.55,-45.73,-46.69,0,*6B
1483654007.53,34266,5.75,72038.0,-27.55,-45.95,-46.97,0,*61
1483654008.82,34267,5.75,72038.5,-27.57,-46.07,-46.89,0,*65
1483654010.06,34268,5.69,72050.3,-27.57,-45.67,-46.55,0,*6E
1483654011.34,34269,5.69,72046.0,-27.57,-45.47,-46.55,0,*6D
1483654012.58,34270,5.75,72032.0,-27.57,-45.67,-46.55,0,*67
1483654013.85,34271,5.69,72010.8,-27.57,-45.41,-46.27,0,*67
1483654015.16,34272,5.75,72038.5,-27.57,-45.27,-46.15,0,*65
1483654016.43,34273,5.75,72032.3,-27.57,-45.47,-46.35,0,*60
1483654017.67,34274,5.75,72054.3,-27.57,-45.41,-46.35,0,*61
1483654018.92,34275,5.75,72054.5,-27.55,-45.47,-46.35,0,*64
1483654020.16,34276,5.75,72038.3,-27.55,-45.41,-46.27,0,*62
1483654021.42,34277,5.75,72052.0,-27.55,-45.21,-46.15,0,*64
1483654022.64,34278,5.69,72050.8,-27.55,-45.61,-46.55,0,*6B
1483654023.86,34279,5.75,72054.0,-27.55,-45.61,-46.55,0,*6A
1483654025.08,34280,5.69,72056.0,-27.55,-45.87,-46.75,0,*66
1483654026.3,34281,5.75,72062.5,-27.55,-45.61,-46.55,0,*6D
1483654027.52,34282,5.75,72052.3,-27.55,-45.95,-46.75,0,*67
1483654028.77,34283,5.75,72052.8,-27.55,-46.07,-46.75,0,*6E
1483654030.03,34284,5.75,72054.8,-27.55,-45.73,-46.69,0,*64
1483654031.28,34285,5.75,72066.5,-27.55,-45.67,-46.69,0,*60
1483654032.52,34286,5.75,72052.3,-27.55,-45.73,-46.75,0,*6B
1483654033.76,34287,5.75,72070.3,-27.55,-45.95,-46.89,0,*61
1483654035.03,34288,5.75,72056.8,-27.55,-46.07,-46.89,0,*66
1483654036.27,34289,5.69,72062.8,-27.55,-45.73,-46.75,0,*64
1483654037.49,34290,5.75,72068.5,-27.55,-45.95,-46.97,0,*68
1483654038.71,34291,5.75,72064.5,-27.55,-45.87,-46.75,0,*66
1483654039.95,34292,5.75,72060.8,-27.55,-45.73,-46.75,0,*6E
1483654041.16,34293,5.69,72062.3,-27.55,-45.87,-46.75,0,*64
1483654042.41,34294,5.75,72064.5,-27.55,-45.95,-46.89,0,*63
1483654043.68,34295,5.75,72072.3,-27.55,-46.15,-47.23,0,*68
1483654044.96,34296,5.75,72070.0,-27.55,-46.15,-47.23,0,*6B
1483654046.2,34297,5.75,72070.3,-27.55,-45.95,-46.89,0,*60
1483654047.45,34298,5.69,72066.3,-27.55,-46.07,-47.17,0,*61
1483654048.69,34299,5.75,72064.0,-27.55,-46.07,-46.97,0,*69
1483654049.93,34300,5.75,72066.0,-27.55,-46.07,-47.17,0,*61
1483654051.18,34301,5.75,72072.3,-27.55,-46.07,-47.17,0,*60
1483654052.42,34302,5.69,72066.0,-27.55,-46.07,-47.17,0,*63
1483654053.66,34303,5.75,72060.0,-27.55,-45.87,-46.69,0,*61
1483654054.9,34304,5.69,72066.5,-27.57,-45.95,-46.75,0,*6A
1483654056.2,34305,5.75,72064.3,-27.57,-46.15,-47.37,0,*67
1483654057.48,34306,5.75,72066.3,-27.57,-46.35,-47.45,0,*63
1483654058.75,34307,5.75,72064.3,-27.57,-46.15,-47.17,0,*67
1483654059.99,34308,5.75,72064.0,-27.57,-45.95,-46.75,0,*66
1483654061.23,34309,5.75,72066.5,-27.57,-45.95,-46.75,0,*67
1483654062.46,34310,5.75,72068.0,-27.59,-46.01,-46.83,0,*66
1483654063.73,34311,5.75,72068.3,-27.57,-46.07,-46.97,0,*6A
1483654064.97,34312,5.75,72074.5,-27.57,-45.95,-46.97,0,*61
1483654066.23,34313,5.75,72070.5,-27.59,-46.15,-47.31,0,*68
1483654067.49,34314,5.75,72074.0,-27.57,-46.15,-47.17,0,*65
1483654068.75,34315,5.75,72072.0,-27.59,-46.15,-47.31,0,*6E
1483654070.05,34316,5.75,72074.5,-27.57,-46.15,-47.45,0,*60
1483654071.34,34317,5.75,72066.0,-27.57,-46.15,-47.37,0,*64
1483654072.59,34318,5.69,72058.3,-27.57,-45.95,-46.97,0,*6B
1483654073.85,34319,5.75,72068.8,-27.57,-46.07,-46.97,0,*62
1483654075.12,34320,5.75,72072.5,-27.57,-46.07,-47.17,0,*61
1483654076.33,34321,5.75,72064.0,-27.63,-46.21,-47.09,0,*6C
1483654077.55,34322,5.75,72058.0,-27.59,-45.95,-46.97,0,*6C
1483654078.79,34323,5.75,72066.5,-27.59,-45.81,-46.75,0,*64
1483654080.07,34324,5.75,72056.0,-27.59,-46.15,-47.23,0,*6F
1483654081.33,34325,5.75,72066.3,-27.57,-45.87,-46.69,0,*67
1483654082.55,34326,5.75,72060.0,-27.59,-45.95,-46.97,0,*68
1483654083.82,34327,5.69,72060.3,-27.57,-46.07,-47.17,0,*66
1483654085.06,34328,5.75,72060.0,-27.59,-46.01,-47.03,0,*64
1483654086.28,34329,5.69,72060.0,-27.59,-46.21,-47.31,0,*66
1483654087.53,34330,5.75,72066.3,-27.59,-46.35,-47.23,0,*68
1483654088.78,34331,5.75,72066.5,-27.57,-45.95,-46.75,0,*6C
1483654090.07,34332,5.75,72074.5,-27.57,-45.73,-46.89,0,*64
1483654091.34,34333,5.75,72056.0,-27.57,-45.67,-46.49,0,*6C
1483654092.6,34334,5.75,72068.3,-27.59,-45.81,-46.61,0,*67
1483654093.84,34335,5.75,72066.8,-27.57,-45.87,-46.75,0,*6B
1483654095.14,34336,5.75,72064.5,-27.57,-45.47,-46.49,0,*6B
1483654096.38,34337,5.75,72064.0,-27.57,-45.41,-46.35,0,*67
1483654097.65,34338,5.75,72064.3,-27.57,-45.41,-46.27,0,*6B
1483654098.95,34339,5.75,72074.8,-27.57,-45.47,-46.49,0,*64
1483654100.19,34340,5.69,72070.8,-27.57,-45.67,-46.55,0,*65